Simultaneous Nadir Overpasses (SNOs) Predictions

Prediction of SNOs between AQUA and NOAA-19 Satellite Orbit:

Table of predicted SNOs for the next 14.0 days since TLE Epoch: 6/29/2019
Index Date (AQUA) Time (AQUA) Lat,Lon (AQUA) SZA (AQUA ) Date (NOAA-19) Time (NOAA-19) Lat,Lon (NOAA-19) SZA (NOAA-19 ) Distance(km) Time Diff (sec)
1 06/29/2019 21:37:54 80.38,-178.36 58.98 06/29/2019 21:36:46 80.36,-178.34 59.00 1.71 68
2 06/29/2019 22:27:21 -80.38, -10.77 121.01 06/29/2019 22:27:51 -80.38, -10.81 121.02 0.78 30
3 07/02/2019 04:01:04 80.38, 85.87 59.14 07/02/2019 04:01:11 80.37, 85.77 59.14 1.95 7
4 07/04/2019 09:34:48 -80.38,-177.57 120.68 07/04/2019 09:34:41 -80.37,-177.49 120.69 1.59 7
5 07/06/2019 15:08:30 80.35, -80.69 59.49 07/06/2019 15:08:01 80.37, -80.82 59.53 3.39 29
6 07/06/2019 15:57:58 -80.38, 86.65 120.46 07/06/2019 15:59:06 -80.37, 86.51 120.48 2.74 68
7 07/08/2019 20:42:15 -80.38, 15.56 120.21 07/08/2019 20:41:31 -80.36, 15.69 120.22 3.44 44
8 07/08/2019 21:31:41 80.38,-176.82 59.80 07/08/2019 21:32:26 80.37,-176.75 59.77 1.49 45
9 07/11/2019 02:15:57 80.35, 112.37 60.03 07/11/2019 02:14:51 80.36, 112.53 60.05 3.16 66




NCC Satellite Simultaneous Nadir Overpasses (SNOs) Prediction Service
